Regional Weather Roundup
Issued by NWS Grand Forks, ND

Home | Current Version | Previous Version | Text Only | Print | Product List | Glossary Off
Versions: 1 2 3 4 5 6 7 8 9 10 11 12 13 14 15 16 17 18 19 20 21 22 23 24 25 26 27 28 29 30 31 32 33 34 35 36 37 38 39 40 41 42 43 44 45 46 47 48 49 50

000
ASUS43 KFGF 312210
RWRFGF
PRAIRIE TO PINES  WEATHER ROUNDUP
NATIONAL WEATHER SERVICE EASTERN NORTH DAKOTA/GRAND FORKS ND
500 PM CDT FRI JUL 31 2015

 **SATELLITE DATA USED TO AUGMENT SKY COVER AT AUTOMATED STATIONS**
 *****  WEATHER ACROSS EASTERN NORTH DAKOTA  *****

CITY           SKY/WX    TMP DP  RH WIND       PRES   REMARKS
GRAND FORKS    MOSUNNY   82  49  31 NW15G21   29.99F
GRAND FRKS AFB SUNNY     80  49  33 NW12      30.01F
GRAND FRKS NWS   N/A     82 N/A N/A NW12        N/A
DEVILS LAKE    SUNNY     79  50  36 NW10G16   30.03F
FARGO          SUNNY     83  54  36 NW14      30.02F
WAHPETON ARPT  CLEAR     82  48  30 W12G20    30.03F
$$

 ***** WEATHER ACROSS CENTRAL AND WESTERN NORTH DAKOTA  *****

CITY           SKY/WX    TMP DP  RH WIND       PRES   REMARKS
BISMARCK       SUNNY     89  50  26 NW10G20   30.07F
MINOT          SUNNY     83  46  27 NW10      30.07S
JAMESTOWN      SUNNY     83  55  38 NW9       30.04S
MINOT AFB      SUNNY     85  47  26 NW10G21   30.06S
GARRISON         N/A     83  54  36 N13       30.08F
WILLISTON      SUNNY     88  44  21 E8        30.08F
DICKINSON      SUNNY     88  43  20 E5        30.09F
HETTINGER      SUNNY     89  39  17 VRB5      30.13F
$$

 *****  OTHER AIRPORT OBSERVATIONS IN OUR AREA  *****

CITY           SKY/WX    TMP DP  RH WIND       PRES   REMARKS
WALHALLA       FAIR      79  48  34 MISG      29.99F
GRAFTON AIRPOR FAIR      81  52  36 NW18      30.00S
VALLEY CITY AR FAIR      82  57  42 W10       30.04F
CANDO          NOT AVBL
CAVALIER APRT  FAIR      79  50  36 NW14G20   29.99S
GWINNER        FAIR      82  57  42 SW9       30.05F
ROLLA            N/A     73  52  46 NW14      30.07F
 ***** THE ABOVE OBSERVATIONS ARE NON NWS ARE NOT QUALITY
       CONTROLLED AND MAY MIS-REPORT RAIN FOR SNOW...
$$

  *****  WEATHER ACROSS NORTHERN MINNESOTA  *****

CITY           SKY/WX    TMP DP  RH WIND       PRES   REMARKS
FLAG ISLAND    MOSUNNY   73  52  46 W21G28    29.90S
WARROAD        SUNNY     75  52  43 W15G25    29.95R
ROSEAU         SUNNY     75  52  43 NW18G28   29.96S
HALLOCK        SUNNY     79  48  34 N14       29.97F
THF RVR FALLS  MOSUNNY   77  48  36 NW17      30.00S
BAUDETTE       MOSUNNY   76  49  38 NW21G29   29.93S
WASKISH        MOSUNNY   75  54  46 W16G26    29.96S
CROOKSTON      MOSUNNY   79  48  34 NW12G22   30.00F
$$
  *****  WEATHER ACROSS CENTRAL AND WEST MINNESOTA  *****

CITY           SKY/WX    TMP DP  RH WIND       PRES   REMARKS
FOSSTON        SUNNY     79  48  34 W18       30.02S
BEMIDJI        PTSUNNY   78  47  32 W23G33    29.99F
PARK RAPIDS    SUNNY     78  45  30 NW23G32   30.01F
ELBOW LAKE     FAIR      79  55  44 W12G17    30.04F
WADENA         MOSUNNY   77  54  44 NW10G21   30.02F
DETROIT LAKES  SUNNY     77  52  41 NW14      30.05S
MOORHEAD       SUNNY     79  57  47 W13       30.03S
FERGUS FALLS   SUNNY     81  55  41 NW12      30.02F
MORRIS MN      SUNNY     81  57  44 W10       30.04F
STAPLES        MOSUNNY   79  48  34 NW14G23   30.02S
$$
  *****  WEATHER ELSEWHERE ACROSS MINNESOTA  *****

CITY           SKY/WX    TMP DP  RH WIND       PRES   REMARKS
DULUTH         MOSUNNY   78  50  37 NW20G26   29.93S
INTRNTL FALLS  MOSUNNY   73  51  46 W17G29    29.90S
ELY            PTSUNNY   66  55  68 N5        29.91R
CLOQUET        MOSUNNY   79  43  27 W21G28    29.95S
WHEATON        SUNNY     81  55  41 W8        30.05F
BRAINERD       SUNNY     80  46  30 W18       30.00F
HIBBING        PTSUNNY   75  51  43 NW17G24   29.94S
ALEXANDRIA     SUNNY     80  54  40 NW15      30.06F
SAINT CLOUD    SUNNY     81  51  35 NW20G30   30.01F
MINNEAPOLIS    MOSUNNY   82  52  35 NW18G25   30.00F
$$

  *****  WEATHER ACROSS SOUTH DAKOTA  *****

CITY           SKY/WX    TMP DP  RH WIND       PRES   REMARKS
SIOUX FALLS    MOSUNNY   86  59  39 N6        30.07F
BROOKINGS      SUNNY     82  55  39 W8        30.10F
WATERTOWN      SUNNY     83  56  39 W8        30.08F
HURON          SUNNY     86  53  32 W8        30.06F
SISSETON         N/A     84  58  40 NW10      30.03F
ABERDEEN       MOSUNNY   85  58  39 SW9       30.04F
MITCHELL       SUNNY     87  56  34 SE5       30.07F
PIERRE         SUNNY     92  46  20 N9        30.07F
MOBRIDGE       SUNNY     91  50  24 NW12      30.05F
RAPID CITY     SUNNY     87  53  31 NE9       30.15F
$$

  *****  SOME WEATHER IN NEARBY STATES *****

CITY           SKY/WX    TMP DP  RH WIND       PRES   REMARKS
GLASGOW MT     SUNNY     92  43  18 S7        30.02F
GREAT FALLS MT SUNNY     91  24   9 NW6       30.13F
CHEYENNE WY    MOSUNNY   77  52  41 E12       30.32F
SCOTTSBLUFF NE MOSUNNY   89  51  27 SW20G26   30.17F
OMAHA NE       PTSUNNY   87  75  67 NW5       30.03F HX  96
DES MOINES IA  PTSUNNY   87  65  47 NE6       30.05F
DAVENPORT IA   MOSUNNY   83  59  44 NW12      30.02F
CHICAGO IL     SUNNY     86  48  26 NW21G31   29.93S
EAU CLAIRE WI  MOSUNNY   80  50  34 NW18G28   29.97F
LA CROSSE WI   SUNNY     83  51  33 NW13      29.98F
$$

  *****  SOME NATIONAL WEATHER *****

CITY           SKY/WX    TMP DP  RH WIND       PRES   REMARKS
LA GUARDIA NY  MOSUNNY   89  51  27 NW9       29.79F
RALEIGH NC     MOSUNNY   88  64  44 VRB6      29.90S
ATLANTA GA     PTSUNNY   92  69  47 N8        29.92S HX  97
NEW ORLEANS LA MOSUNNY   93  71  48 N10G21    29.89F HX 100
OKLAHOMA CITY  CLOUDY    81  77  88 S7        30.08F
ALBUQUERQUE NM PTSUNNY   82  56  40 W12       30.26F
SALT LAKE CITY PTSUNNY   92  28  10 NW13      30.16F
LOS ANGELES CA MOSUNNY   75  65  70 W12       29.99F
BOISE ID       SUNNY     96  41  15 NW7       30.09F HX  92
SEATTLE WA     MOSUNNY   92  46  20 NW9       30.05F
$$

*** WEATHER ACROSS MANITOBA...SASKATCHEWAN AND ONTARIO ***
                ***ONTARIO***

CITY           SKY/WX    TMP DP  RH WIND       PRES   REMARKS
GERALDTON      PTSUNNY   68  54  60 N16G26    29.74R
THUNDER BAY    MOSUNNY   75  57  53 W13G22    29.80F
SIOUX LOOKOUT  PTSUNNY   73  54  49 NW13G21   29.83R
TORONTO        PTSUNNY   82  55  39 W22G28    29.75S
BIG TROUT LK   MOSUNNY   68  48  49 NW16G25   29.65S
PICKLE LAKE    PTSUNNY   70  48  46 VRB8G17   29.73R
DRYDEN         PTSUNNY   70  54  56 W15G23    29.86S
KENORA         PTSUNNY   70  55  60 NW7       29.90F
$$
                *** MANITOBA***

CITY           SKY/WX    TMP DP  RH WIND       PRES   REMARKS
BRANDON        MOSUNNY   79  52  38 NW13G23   30.03F
DAUPHIN        MOSUNNY   75  54  46 NW13G18   29.96F
ISLAND LAKE    PTSUNNY   73  50  43 NW9G22    29.75F
PILOT MOUND      N/A     75  50  41 NW13G20     N/A
THE PAS        MOSUNNY   75  50  41 W18G25    29.90F
THOMPSON       PTSUNNY   72  50  46 W16G22    29.77F
WINNIPEG       MOSUNNY   75  54  46 NW15G26   29.95F
LYNN LAKE      MOSUNNY   68  54  60 W15G23    29.84F
CHURCHILL      PTSUNNY   57  50  77 N17       29.66S
GILLAM         MOSUNNY   70  50  49 N15       29.70S
$$
                ***SASKATCHEWAN***

CITY           SKY/WX    TMP DP  RH WIND       PRES   REMARKS
ESTEVAN        MOSUNNY   82  43  24 NW8       30.08F
KINDERSLEY     MOSUNNY   82  48  30 S9        30.06F
LLOYDMINSTER   PTSUNNY   79  45  29 W10       30.04F
PRINCE ALBERT  PTSUNNY   79  50  36 NW12      30.01F
REGINA         SUNNY     81  50  34 VRB2      30.09F
YORKTON        SUNNY     75  50  41 W17G23    30.04F
N. BATTLEFORD  SUNNY     79  46  31 S3        30.07F
LA RONGE       PTSUNNY   77  46  33 W9G18     29.96F
SASKATOON      MOSUNNY   79  46  31 SW6       30.07F
SWIFT CURRENT  SUNNY     81  46  30 S9        30.08F
$$
NOTE: THESE ARE AUTOMATED STATIONS WITH LIMITED QUALITY CONTROL
      "FAIR" INDICATES FEW OR NO CLOUDS BELOW 12,000 FEET WITH NO
      SIGNIFICANT WEATHER AND/OR OBSTRUCTIONS TO VISIBILITY.
      SKY/WX - SKY CONDITION AND SIGNIFICANT WEATHER.
      TMP - AIR TEMPERATURE.    DP   - DEWPOINT TEMPERATURE.
      RH  - RELATIVE HUMIDITY.  PRES - PRESSURE.
      HX  - HEAT INDEX.         WCI  - WIND CHILL INDEX.
$


USA.gov is the U.S. government's official web portal to all federal, state and local government web resources and services.